GIA164 WIII-WIEE

Flight info

Callsign GIA164
Flight time N/A
Altitude 36000
Route GUDBA T6 LEBEG
Aircraft B738/M-SDE2E3FGHIRWXY/LB1

Departure

Time 2026-05-01 07:23
Airport Soekarno-Hatta International Airport (WIII)

Arrival

Time N/A
Airport Minangkabau International Airport (WIEE)
Time Latitude Longitude Altitude Speed Heading
2026-05-01 07:23 -6.21071 106.65308 4259 ft 263 kts 257°
2026-05-01 07:23 -6.21846 106.61691 6018 ft 268 kts 256°
2026-05-01 07:24 -6.22232 106.59840 6819 ft 272 kts 257°
2026-05-01 07:24 -6.22622 106.57962 7599 ft 277 kts 257°
2026-05-01 07:24 -6.23013 106.56067 8332 ft 283 kts 257°
2026-05-01 07:24 -6.23348 106.54103 9088 ft 289 kts 269°
2026-05-01 07:25 -6.22936 106.52138 9873 ft 292 kts 296°
2026-05-01 07:25 -6.21737 106.50443 10307 ft 308 kts 311°
2026-05-01 07:25 -6.20238 106.48779 10505 ft 333 kts 313°
2026-05-01 07:25 -6.18599 106.47021 10645 ft 356 kts 314°
2026-05-01 07:26 -6.16860 106.45147 10909 ft 373 kts 313°
2026-05-01 07:26 -6.15076 106.43203 11393 ft 382 kts 313°
2026-05-01 07:26 -6.13281 106.41227 12070 ft 383 kts 313°
2026-05-01 07:26 -6.11477 106.39232 12678 ft 388 kts 312°
2026-05-01 07:27 -6.09653 106.37212 13227 ft 393 kts 312°
2026-05-01 07:27 -6.07891 106.35108 13838 ft 395 kts 307°
2026-05-01 07:27 -6.06323 106.32831 14383 ft 398 kts 303°
2026-05-01 07:27 -6.04831 106.30468 14913 ft 401 kts 302°
2026-05-01 07:28 -6.03354 106.28078 15436 ft 404 kts 302°
2026-05-01 07:28 -6.01858 106.25669 15932 ft 407 kts 302°
2026-05-01 07:28 -6.00338 106.23254 16421 ft 410 kts 303°
2026-05-01 07:28 -5.98814 106.20862 16928 ft 412 kts 303°
2026-05-01 07:29 -5.97246 106.18423 17407 ft 415 kts 303°
2026-05-01 07:29 -5.96204 106.16810 17731 ft 417 kts 303°
2026-05-01 07:29 -5.94071 106.13519 18322 ft 421 kts 303°
2026-05-01 07:29 -5.93035 106.11923 18571 ft 423 kts 303°
2026-05-01 07:30 -5.90897 106.08632 19104 ft 426 kts 303°
2026-05-01 07:30 -5.89804 106.06950 19394 ft 427 kts 303°
2026-05-01 07:30 -5.88172 106.04437 19793 ft 429 kts 303°
2026-05-01 07:30 -5.86536 106.01917 20168 ft 432 kts 303°
2026-05-01 07:31 -5.84354 105.98559 20654 ft 435 kts 304°
2026-05-01 07:31 -5.79919 105.91730 21586 ft 441 kts 304°
2026-05-01 07:32 -5.76548 105.86542 22251 ft 446 kts 304°
2026-05-01 07:32 -5.74848 105.83927 22575 ft 448 kts 304°
2026-05-01 07:33 -5.71424 105.78659 23199 ft 452 kts 304°
2026-05-01 07:33 -5.69695 105.75999 23481 ft 454 kts 304°
2026-05-01 07:33 -5.66248 105.70698 23981 ft 458 kts 304°
2026-05-01 07:34 -5.64500 105.68009 24231 ft 460 kts 304°
2026-05-01 07:34 -5.60993 105.62617 24719 ft 463 kts 304°
2026-05-01 07:34 -5.59232 105.59909 24953 ft 464 kts 304°
2026-05-01 07:35 -5.57458 105.57183 25182 ft 466 kts 304°
2026-05-01 07:35 -5.55672 105.54466 25416 ft 467 kts 305°
2026-05-01 07:35 -5.53793 105.51796 25638 ft 469 kts 307°
2026-05-01 07:35 -5.51850 105.49151 25857 ft 470 kts 307°
2026-05-01 07:36 -5.49886 105.46518 26074 ft 472 kts 308°
2026-05-01 07:36 -5.47912 105.43873 26279 ft 473 kts 308°
2026-05-01 07:36 -5.45968 105.41256 26491 ft 475 kts 307°
2026-05-01 07:36 -5.43999 105.38589 26693 ft 476 kts 307°
2026-05-01 07:37 -5.40051 105.33210 27093 ft 479 kts 307°
2026-05-01 07:37 -5.38071 105.30504 27295 ft 481 kts 307°
2026-05-01 07:37 -5.36090 105.27797 27485 ft 482 kts 307°
2026-05-01 07:38 -5.34101 105.25079 27670 ft 483 kts 307°
2026-05-01 07:38 -5.32106 105.22353 27839 ft 485 kts 307°
2026-05-01 07:38 -5.28126 105.16919 28185 ft 487 kts 307°
2026-05-01 07:39 -5.26114 105.14173 28351 ft 489 kts 307°
2026-05-01 07:39 -5.24095 105.11416 28509 ft 490 kts 307°
2026-05-01 07:39 -5.20039 105.05882 28846 ft 492 kts 307°
2026-05-01 07:40 -5.18009 105.03114 29056 ft 492 kts 307°
2026-05-01 07:40 -5.15984 105.00351 29312 ft 491 kts 307°
2026-05-01 07:40 -5.13961 104.97591 29566 ft 491 kts 307°
2026-05-01 07:40 -5.11937 104.94831 29798 ft 491 kts 307°
2026-05-01 07:41 -5.09914 104.92073 30019 ft 490 kts 307°
2026-05-01 07:41 -5.07896 104.89321 30234 ft 490 kts 307°
2026-05-01 07:41 -5.03867 104.83829 30723 ft 488 kts 307°
2026-05-01 07:42 -5.01881 104.81122 30948 ft 487 kts 307°
2026-05-01 07:42 -4.99873 104.78386 31188 ft 486 kts 307°
2026-05-01 07:42 -4.97868 104.75653 31447 ft 485 kts 307°
2026-05-01 07:42 -4.95864 104.72923 31707 ft 484 kts 307°
2026-05-01 07:43 -4.93871 104.70207 31970 ft 484 kts 307°
2026-05-01 07:43 -4.91878 104.67492 32216 ft 483 kts 307°
2026-05-01 07:43 -4.87891 104.62062 32722 ft 482 kts 307°
2026-05-01 07:44 -4.83947 104.56690 33232 ft 481 kts 307°
2026-05-01 07:44 -4.79983 104.51292 33749 ft 479 kts 307°
2026-05-01 07:45 -4.78005 104.48598 33998 ft 479 kts 307°
2026-05-01 07:45 -4.76032 104.45911 34243 ft 478 kts 307°
2026-05-01 07:45 -4.74062 104.43225 34490 ft 476 kts 307°
2026-05-01 07:45 -4.72102 104.40555 34742 ft 475 kts 307°
2026-05-01 07:46 -4.70145 104.37887 34979 ft 475 kts 307°
2026-05-01 07:46 -4.68188 104.35221 35203 ft 474 kts 307°
2026-05-01 07:46 -4.64309 104.29936 35656 ft 473 kts 307°
2026-05-01 07:47 -4.62358 104.27279 35891 ft 472 kts 307°
2026-05-01 07:47 -4.60414 104.24631 36110 ft 471 kts 307°